DMSP 5D-2 F13 DEB

Satellite information

Favourite Embed

Satellite Type and Status

DEBRISIN ORBIT

Key statistics

Satellite DMSP 5D-2 F13 DEB at a glance.

Uptime

11117

Days in orbit

Revolutions

≈ 14.0

Per day

Orbit

SSO

Sun Synchronous Orbit

Inclination

98.7

Latest

Satellite identification and parameters

Extended collection of information and parameters for DMSP 5D-2 F13 DEB.

Object identification

Identified? True

Debris? True

Object name: DMSP 5D-2 F13 DEB

International designator: 1995-015GJ

Object number (NORAD): 42268

Object ID (CCSDS): 42268

Country: UNITED STATES OF AMERICA (US)

Current information (Y/N): Y

RCS size: SMALL

Orbital parameters

Period: 102.511 minutes

Inclination: 98.7457 deg

SMA: 7255.591 km

Apoapsis: 965.243 km

Periapsis: 789.669 km

RAAN: 83.9622 deg

Eccentricy: 0.01209916

Argument of periapsis: 96.5428 deg

Mean anomaly: 264.953 deg

Mean motion: 14.04732307 rev/day

Mean motion (dot): 0.00004606 rev/day2

B* drag term: 0.0027158804 1/REarth

Two-line elements (TLE)

Creation date: Aug. 28, 2025, 11:13 p.m.

Reference frame: TEME

Reference center: EARTH

Epoch: Aug. 28, 2025, 12:31 a.m. UTC

TLE line 0: 0 DMSP 5D-2 F13 DEB

TLE line 1: 1 42268U 95015GJ 25240.02157592 .00004606 00000-0 27159-2 0 9998

TLE line 2: 2 42268 98.7457 83.9622 0120992 96.5428 264.9530 14.04732307526082

Live tracking on map

Real-time ground track for satellite DMSP 5D-2 F13 DEB.

In-orbit conjunctions

A list of the most updated potential collisions computed for object DMSP 5D-2 F13 DEB.

Target Orbit TCA Probability of collision Miss distance Type
COSMOS 1697 LEO 2025-01-16 06:09:31 0.0001508347 256.0 (m) PAYLOAD
METEOR 1-13 LEO 2024-11-18 19:41:45 0.0001040758 554.0 (m) PAYLOAD
SL-8 R/B LEO 2024-11-12 03:39:53 0.0005883486 139.0 (m) ROCKET BODY
CZ-6A DEB LEO 2024-11-11 06:34:26 0.0003553265 351.0 (m) DEBRIS
DMSP 5D-2 F13 DEB SSO 2024-11-08 15:07:57 0.0001034068 767.0 (m) DEBRIS

Associated space launch

Military meteorological satellite

DMSP 5D-2 F13 DEB was lifted into orbit during the mission ‘Atlas E | DMSP-5D2 F13’, on board a Atlas E space rocket.

The launch took place on March 24, 1995, 2:05 p.m. from Space Launch Complex 3W.

For more information about the launch, click the button.

Launch to space Atlas E | DMSP-5D2 F13
Atlas E | DMSP-5D2 F13

Agency: N/A

Status: Launch Successful

Launch date: March 24, 1995, 2:05 p.m. UTC

Rocket: Atlas E

Launch pad: Space Launch Complex 3W

Location: Vandenberg SFB, CA, USA

...

Latest news about this satellite

There are no fresh news available about this satellite. Check back as we update our databases every day.


Newsletter sign-up

Weekly statistics, charts and insights to help you stay on top of the space industry.